EW0401 Weather Reports


Display with metric or nautical units.
time (UTC)temp
F
wind
direction
speed
MPH
gust
MPH
rain 1hr
in
rain 24hr
in
rain mn
in
humidity
%
barometer
mb
20260510183053 88 226 0.0 5.0 0.00 0.00 0.00 76 1013.9
20260510181552 88 0 0.0 4.0 0.00 0.00 0.00 76 1014.0
20260510180107 87 0 0.0 3.0 0.00 0.00 0.00 76 1014.0
20260510174550 87 160 1.0 4.0 0.00 0.00 0.00 74 1014.4
20260510173049 87 0 0.0 4.0 0.00 0.00 0.00 75 1014.5
20260510171552 86 91 0.0 4.0 0.00 0.00 0.00 76 1014.8
20260510170054 86 55 0.0 7.0 0.00 0.00 0.00 76 1014.9
20260510164557 86 82 1.0 6.0 0.00 0.00 0.00 76 1014.9
20260510163053 85 225 0.0 4.0 0.00 0.00 0.00 77 1014.9
20260510161554 85 162 0.0 4.0 0.00 0.00 0.00 78 1015.0
20260510160056 84 194 0.0 4.0 0.00 0.00 0.00 79 1015.2
20260510154557 83 77 1.0 5.0 0.00 0.00 0.00 80 1015.3
20260510153051 82 105 0.0 4.0 0.00 0.00 0.00 81 1015.4
20260510151559 81 96 1.0 5.0 0.00 0.00 0.00 82 1015.6
20260510150051 82 0 0.0 2.0 0.00 0.00 0.00 82 1015.5
20260510144605 81 0 0.0 5.0 0.00 0.00 0.00 82 1015.4
20260510143100 81 44 0.0 3.0 0.00 0.00 0.00 83 1015.3
20260510141555 81 0 0.0 3.0 0.00 0.00 0.00 84 1015.3
20260510140053 79 0 0.0 3.0 0.00 0.00 0.00 85 1015.3
20260510134551 79 0 0.0 6.0 0.00 0.00 0.00 86 1015.2
20260510133053 77 42 0.0 4.0 0.00 0.00 0.00 89 1015.1
20260510131552 76 0 0.0 2.0 0.00 0.00 0.00 89 1014.9
20260510130110 76 0 0.0 2.0 0.00 0.00 0.00 89 1014.5
20260510124551 76 0 0.0 2.0 0.00 0.00 0.00 89 1014.3
20260510123057 76 0 0.0 0.0 0.00 0.00 0.00 89 1014.0
20260510121555 75 0 0.0 0.0 0.00 0.00 0.00 89 1013.7
20260510114554 75 0 0.0 0.0 0.00 0.00 0.00 89 1012.9
20260510113057 75 0 0.0 0.0 0.00 0.00 0.00 89 1012.8
20260510111551 75 0 0.0 1.0 0.00 0.00 0.00 89 1012.4
20260510110051 75 0 0.0 1.0 0.00 0.00 0.00 89 1012.3
20260510104550 75 0 0.0 2.0 0.00 0.00 0.00 89 1012.1
20260510103053 75 0 0.0 2.0 0.00 0.00 0.00 89 1012.1
20260510101557 75 0 0.0 2.0 0.00 0.00 0.00 89 1011.8
20260510100055 75 0 0.0 3.0 0.00 0.00 0.00 89 1011.7
20260510094553 75 0 0.0 4.0 0.00 0.00 0.00 89 1011.6
20260510093051 75 0 0.0 2.0 0.00 0.00 0.00 89 1011.7
20260510091554 75 0 0.0 0.0 0.00 0.00 0.00 89 1011.7
20260510090056 75 0 0.0 0.0 0.00 0.00 0.00 89 1011.8
20260510084557 75 0 0.0 2.0 0.00 0.00 0.00 89 1011.7
20260510083059 75 0 0.0 2.0 0.00 0.00 0.00 89 1011.8
20260510081554 75 0 0.0 2.0 0.00 0.00 0.00 89 1011.7
20260510074601 75 0 0.0 0.0 0.00 0.00 0.00 89 1011.7
20260510073114 75 0 0.0 0.0 0.00 0.00 0.00 88 1011.7
20260510071555 75 0 0.0 0.0 0.00 0.00 0.00 88 1011.5
20260510064635 75 0 0.0 1.0 0.00 0.00 0.00 88 1011.6
20260510063053 75 0 0.0 2.0 0.00 0.00 0.00 88 1011.8
20260510061553 75 0 0.0 2.0 0.00 0.00 0.00 88 1011.7
20260510060057 75 0 0.0 2.0 0.00 0.00 0.00 87 1011.8
20260510054557 75 0 0.0 3.0 0.00 0.00 0.00 87 1011.9
20260510053055 75 0 0.0 6.0 0.00 0.00 0.00 87 1011.9
20260510051558 76 0 0.0 4.0 0.00 0.00 0.00 87 1012.1
20260510050052 76 0 0.0 2.0 0.00 0.00 0.00 87 1012.1
20260510044551 76 0 0.0 2.0 0.00 0.00 0.00 87 1012.4
20260510043057 76 0 0.0 5.0 0.00 0.00 0.00 87 1012.5
20260510041558 76 0 0.0 5.0 0.00 0.00 0.00 87 1012.7
20260510040101 76 0 1.0 5.0 0.00 0.00 0.00 87 1012.8
20260510034616 76 69 2.0 7.0 0.00 0.00 0.00 87 1012.9
20260510033106 76 0 0.0 4.0 0.00 0.00 0.00 87 1012.5
20260510031554 76 0 0.0 7.0 0.00 0.00 0.00 87 1012.5
20260510030108 76 76 1.0 6.0 0.00 0.00 0.00 87 1012.2
20260510024558 76 0 0.0 5.0 0.00 0.00 0.00 87 1012.6
20260510023100 76 78 0.0 4.0 0.00 0.00 0.00 86 1012.4
20260510021606 77 0 1.0 4.0 0.00 0.00 0.00 85 1012.1
20260510020100 77 0 2.0 9.0 0.00 0.00 0.00 85 1012.2
20260510014601 76 77 2.0 8.0 0.00 0.00 0.00 80 1011.3
20260510013135 77 80 3.0 9.0 0.00 0.00 0.00 81 1010.7
20260510011556 78 84 3.0 9.0 0.00 0.00 0.00 85 1010.6
20260510010054 79 0 0.0 5.0 0.00 0.00 0.00 84 1010.1
20260510004551 81 0 0.0 2.0 0.00 0.00 0.00 82 1010.0
20260510003104 83 265 0.0 4.0 0.00 0.00 0.00 76 1009.5
20260510001551 84 0 0.0 2.0 0.00 0.00 0.00 76 1008.8
20260510000116 85 0 0.0 2.0 0.00 0.00 0.00 76 1008.9
20260509234551 86 100 0.0 0.0 0.00 0.00 0.00 75 1008.8
20260509233052 87 0 0.0 2.0 0.00 0.00 0.00 74 1008.8
20260509231556 88 0 0.0 3.0 0.00 0.00 0.00 72 1009.0
20260509230058 89 0 0.0 3.0 0.00 0.00 0.00 70 1008.8
20260509224549 90 0 0.0 2.0 0.00 0.00 0.00 71 1008.6
20260509223103 89 0 0.0 3.0 0.00 0.00 0.00 73 1008.7
20260509221600 89 0 0.0 3.0 0.00 0.00 0.00 73 1008.5
20260509220052 90 0 0.0 2.0 0.00 0.00 0.00 72 1008.5
20260509214601 90 0 0.0 2.0 0.00 0.00 0.00 73 1008.3
20260509213051 89 0 0.0 3.0 0.00 0.00 0.00 74 1008.4
20260509211556 88 0 0.0 2.0 0.00 0.00 0.00 75 1008.3
20260509210056 90 0 0.0 2.0 0.00 0.00 0.00 73 1008.5
20260509204553 91 0 0.0 2.0 0.00 0.00 0.00 72 1008.7
20260509203056 92 0 0.0 2.0 0.00 0.00 0.00 72 1008.6
20260509201549 90 0 0.0 2.0 0.00 0.00 0.00 65 1008.7
20260509200106 89 0 0.0 3.0 0.00 0.00 0.00 67 1009.0
20260509194556 90 0 0.0 2.0 0.00 0.01 0.00 67 1009.2
20260509193051 89 0 0.0 2.0 0.00 0.01 0.00 71 1009.4
20260509191549 88 0 0.0 4.0 0.00 0.01 0.00 75 1009.3
20260509190058 88 250 0.0 4.0 0.00 0.01 0.00 74 1009.6
20260509184553 86 0 0.0 3.0 0.00 0.02 0.00 76 1009.9